START_TIME,STEP,MOV.,A46,t_acc.,A13,t_acc.,M47,t_acc.,A17,t_acc.,A28,t_acc.,M38,t_acc.
1979-03-04 03:00:15.000 ,7,1,,0,3200.,4.8,992.,4.8,,0,0.,4.8,688.,4.8
1979-03-04 03:00:19.800 ,7,1,,0,2752.,4.8,848.,4.8,,0,0.,4.8,592.,4.8
1979-03-04 03:00:24.600 ,7,1,,0,1088.,4.8,352.,4.8,,0,0.,4.8,256.,4.8
1979-03-04 03:00:29.400 ,7,1,,0,2.,4.8,0.,4.8,,0,0.,4.8,0.,4.8
1979-03-04 03:00:34.200 ,7,1,,0,1.,4.8,0.,4.8,,0,0.,4.8,50.,4.8
1979-03-04 03:00:39.000 ,3,1,,0,1.,4.8,0.,4.8,,0,0.,4.8,608.,4.8
1979-03-04 03:00:43.800 ,3,1,,0,1.,4.8,0.,4.8,,0,0.,4.8,688.,4.8
1979-03-04 03:00:48.600 ,3,1,,0,384.,4.8,132.,4.8,,0,0.,4.8,576.,4.8
1979-03-04 03:00:53.400 ,3,1,,0,2112.,4.8,624.,4.8,,0,0.,4.8,416.,4.8
1979-03-04 03:00:58.200 ,3,1,,0,1536.,4.8,408.,4.8,,0,0.,4.8,320.,4.8
1979-03-04 03:01:03.000 ,0,1,,0,1152.,4.8,344.,4.8,,0,0.,4.8,252.,4.8
1979-03-04 03:01:07.800 ,0,1,,0,1216.,4.8,304.,4.8,,0,0.,4.8,272.,4.8
1979-03-04 03:01:12.600 ,0,1,,0,1120.,4.8,328.,4.8,,0,0.,4.8,256.,4.8
1979-03-04 03:01:17.400 ,0,1,,0,2.,4.8,0.,4.8,,0,0.,4.8,296.,4.8
1979-03-04 03:01:22.200 ,0,1,,0,0.,4.8,0.,4.8,,0,0.,4.8,288.,4.8
1979-03-04 03:01:27.000 ,4,1,,0,0.,4.8,0.,4.8,,0,0.,4.8,212.,4.8
1979-03-04 03:01:31.800 ,4,1,,0,0.,4.8,0.,4.8,,0,0.,4.8,236.,4.8
1979-03-04 03:01:36.600 ,4,1,,0,272.,4.8,80.,4.8,,0,0.,4.8,280.,4.8
1979-03-04 03:01:41.400 ,4,1,,0,1888.,4.8,576.,4.8,,0,0.,4.8,392.,4.8
1979-03-04 03:01:46.200 ,4,1,,0,2496.,4.8,752.,4.8,,0,0.,4.8,488.,4.8
1979-03-04 03:01:51.000 ,7,1,,0,3520.,4.8,1056.,4.8,,0,0.,4.8,720.,4.8
1979-03-04 03:01:55.800 ,7,1,,0,2816.,4.8,896.,4.8,,0,0.,4.8,624.,4.8
1979-03-04 03:02:00.600 ,7,1,,0,1152.,4.8,392.,4.8,,0,0.,4.8,264.,4.8
1979-03-04 03:02:05.400 ,7,1,,0,1.,4.8,0.,4.8,,0,0.,4.8,0.,4.8
1979-03-04 03:02:10.200 ,7,1,,0,0.,4.8,0.,4.8,,0,0.,4.8,33.,4.8
1979-03-04 03:02:15.000 ,3,1,,0,1.,4.8,0.,4.8,,0,0.,4.8,608.,4.8
1979-03-04 03:02:19.800 ,3,1,,0,0.,4.8,0.,4.8,,0,0.,4.8,752.,4.8
1979-03-04 03:02:24.600 ,3,1,,0,416.,4.8,114.,4.8,,0,0.,4.8,608.,4.8
1979-03-04 03:02:29.400 ,3,1,,0,2176.,4.8,672.,4.8,,0,0.,4.8,408.,4.8
1979-03-04 03:02:34.200 ,3,1,,0,1504.,4.8,448.,4.8,,0,0.,4.8,288.,4.8
1979-03-04 03:02:39.000 ,0,1,,0,1248.,4.8,360.,4.8,,0,0.,4.8,244.,4.8
1979-03-04 03:02:43.800 ,0,1,,0,1312.,4.8,352.,4.8,,0,0.,4.8,256.,4.8
1979-03-04 03:02:48.600 ,0,1,,0,1088.,4.8,320.,4.8,,0,0.,4.8,296.,4.8
1979-03-04 03:02:53.400 ,0,1,,0,0.,4.8,0.,4.8,,0,0.,4.8,304.,4.8
1979-03-04 03:02:58.200 ,0,1,,0,0.,4.8,0.,4.8,,0,0.,4.8,304.,4.8
1979-03-04 03:03:03.000 ,4,1,,0,0.,4.8,0.,4.8,,0,0.,4.8,236.,4.8
1979-03-04 03:03:07.800 ,4,1,,0,0.,4.8,0.,4.8,,0,0.,4.8,272.,4.8
1979-03-04 03:03:12.600 ,4,1,,0,248.,4.8,84.,4.8,,0,0.,4.8,264.,4.8
1979-03-04 03:03:17.400 ,4,1,,0,1856.,4.8,512.,4.8,,0,0.,4.8,360.,4.8
1979-03-04 03:03:22.200 ,4,1,,0,2496.,4.8,816.,4.8,,0,0.,4.8,512.,4.8
1979-03-04 03:03:27.000 ,7,1,,0,3392.,4.8,1056.,4.8,,0,0.,4.8,768.,4.8
1979-03-04 03:03:31.800 ,7,1,,0,2816.,4.8,896.,4.8,,0,0.,4.8,640.,4.8
1979-03-04 03:03:36.600 ,7,1,,0,1120.,4.8,360.,4.8,,0,0.,4.8,264.,4.8
1979-03-04 03:03:41.400 ,7,1,,0,0.,4.8,0.,4.8,,0,0.,4.8,0.,4.8
1979-03-04 03:03:46.200 ,7,1,,0,0.,4.8,0.,4.8,,0,0.,4.8,54.,4.8
1979-03-04 03:03:51.000 ,3,1,,0,1.,4.8,0.,4.8,,0,0.,4.8,640.,4.8
1979-03-04 03:03:55.800 ,3,1,,0,1.,4.8,0.,4.8,,0,0.,4.8,720.,4.8
1979-03-04 03:04:00.600 ,3,1,,0,424.,4.8,148.,4.8,,0,0.,4.8,624.,4.8
1979-03-04 03:04:05.400 ,3,1,,0,2112.,4.8,688.,4.8,,0,0.,4.8,480.,4.8
1979-03-04 03:04:10.200 ,3,1,,0,1632.,4.8,488.,4.8,,0,0.,4.8,344.,4.8
1979-03-04 03:04:15.000 ,0,1,,0,1280.,4.8,352.,4.8,,0,0.,4.8,264.,4.8
1979-03-04 03:04:19.800 ,0,1,,0,1280.,4.8,360.,4.8,,0,0.,4.8,252.,4.8
1979-03-04 03:04:24.600 ,0,1,,0,1184.,4.8,328.,4.8,,0,0.,4.8,288.,4.8
1979-03-04 03:04:29.400 ,0,1,,0,1.,4.8,0.,4.8,,0,0.,4.8,368.,4.8
1979-03-04 03:04:34.200 ,0,1,,0,1.,4.8,0.,4.8,,0,0.,4.8,344.,4.8
1979-03-04 03:04:39.000 ,4,1,,0,0.,4.8,0.,4.8,,0,0.,4.8,280.,4.8
1979-03-04 03:04:43.800 ,4,1,,0,2.,4.8,0.,4.8,,0,0.,4.8,264.,4.8
1979-03-04 03:04:48.600 ,4,1,,0,288.,4.8,88.,4.8,,0,0.,4.8,304.,4.8
1979-03-04 03:04:53.400 ,4,1,,0,1984.,4.8,592.,4.8,,0,0.,4.8,440.,4.8
1979-03-04 03:04:58.200 ,4,1,,0,2624.,4.8,848.,4.8,,0,0.,4.8,544.,4.8
1979-03-04 03:05:03.000 ,7,1,,0,3584.,4.8,1120.,4.8,,0,0.,4.8,768.,4.8
1979-03-04 03:05:07.800 ,7,1,,0,2880.,4.8,912.,4.8,,0,0.,4.8,640.,4.8
1979-03-04 03:05:12.600 ,7,1,,0,1248.,4.8,384.,4.8,,0,0.,4.8,280.,4.8
1979-03-04 03:05:17.400 ,7,1,,0,2.,4.8,0.,4.8,,0,0.,4.8,0.,4.8
1979-03-04 03:05:22.200 ,7,1,,0,0.,4.8,0.,4.8,,0,0.,4.8,45.,4.8
1979-03-04 03:05:27.000 ,3,1,,0,1.,4.8,0.,4.8,,0,0.,4.8,656.,4.8
1979-03-04 03:05:31.800 ,3,1,,0,0.,4.8,0.,4.8,,0,0.,4.8,768.,4.8
1979-03-04 03:05:36.600 ,3,1,,0,456.,4.8,152.,4.8,,0,0.,4.8,656.,4.8
1979-03-04 03:05:41.400 ,3,1,,0,2432.,4.8,752.,4.8,,0,0.,4.8,472.,4.8
1979-03-04 03:05:46.200 ,3,1,,0,1664.,4.8,528.,4.8,,0,0.,4.8,344.,4.8
1979-03-04 03:05:51.000 ,0,1,,0,1312.,4.8,360.,4.8,,0,0.,4.8,280.,4.8
1979-03-04 03:05:55.800 ,0,1,,0,1312.,4.8,352.,4.8,,0,0.,4.8,256.,4.8
1979-03-04 03:06:00.600 ,0,1,,0,1152.,4.8,320.,4.8,,0,0.,4.8,280.,4.8
1979-03-04 03:06:05.400 ,0,1,,0,2.,4.8,0.,4.8,,0,0.,4.8,320.,4.8
1979-03-04 03:06:10.200 ,0,1,,0,1.,4.8,0.,4.8,,0,0.,4.8,288.,4.8
1979-03-04 03:06:15.000 ,4,1,,0,2.,4.8,0.,4.8,,0,0.,4.8,280.,4.8
1979-03-04 03:06:19.800 ,4,1,,0,1.,4.8,0.,4.8,,0,0.,4.8,240.,4.8
1979-03-04 03:06:24.600 ,4,1,,0,288.,4.8,96.,4.8,,0,0.,4.8,264.,4.8
1979-03-04 03:06:29.400 ,4,1,,0,1984.,4.8,624.,4.8,,0,0.,4.8,384.,4.8
1979-03-04 03:06:34.200 ,4,1,,0,2816.,4.8,848.,4.8,,0,0.,4.8,528.,4.8
1979-03-04 03:06:39.000 ,7,1,,0,3904.,4.8,1184.,4.8,,0,0.,4.8,816.,4.8
1979-03-04 03:06:43.800 ,7,1,,0,3008.,4.8,928.,4.8,,0,0.,4.8,672.,4.8
1979-03-04 03:06:48.600 ,7,1,,0,1216.,4.8,416.,4.8,,0,0.,4.8,228.,4.8
1979-03-04 03:06:53.400 ,7,1,,0,0.,4.8,0.,4.8,,0,0.,4.8,0.,4.8
1979-03-04 03:06:58.200 ,7,1,,0,1.,4.8,0.,4.8,,0,0.,4.8,50.,4.8
1979-03-04 03:07:03.000 ,3,1,,0,1.,4.8,0.,4.8,,0,0.,4.8,624.,4.8
1979-03-04 03:07:07.800 ,3,1,,0,1.,4.8,0.,4.8,,0,0.,4.8,768.,4.8
1979-03-04 03:07:12.600 ,3,1,,0,472.,4.8,140.,4.8,,0,0.,4.8,624.,4.8
1979-03-04 03:07:17.400 ,3,1,,0,2368.,4.8,720.,4.8,,0,0.,4.8,480.,4.8
1979-03-04 03:07:22.200 ,3,1,,0,1696.,4.8,504.,4.8,,0,0.,4.8,328.,4.8
1979-03-04 03:07:27.000 ,0,1,,0,1376.,4.8,344.,4.8,,0,0.,4.8,272.,4.8
1979-03-04 03:07:31.800 ,0,1,,0,1312.,4.8,384.,4.8,,0,0.,4.8,248.,4.8
1979-03-04 03:07:36.600 ,0,1,,0,1120.,4.8,280.,4.8,,0,0.,4.8,288.,4.8
1979-03-04 03:07:41.400 ,0,1,,0,0.,4.8,0.,4.8,,0,0.,4.8,336.,4.8
1979-03-04 03:07:46.200 ,0,1,,0,1.,4.8,0.,4.8,,0,0.,4.8,344.,4.8
1979-03-04 03:07:51.000 ,4,1,,0,0.,4.8,0.,4.8,,0,0.,4.8,280.,4.8
1979-03-04 03:07:55.800 ,4,1,,0,0.,4.8,0.,4.8,,0,0.,4.8,280.,4.8
1979-03-04 03:08:00.600 ,4,1,,0,328.,4.8,104.,4.8,,0,0.,4.8,320.,4.8
1979-03-04 03:08:05.400 ,4,1,,0,2048.,4.8,656.,4.8,,0,0.,4.8,456.,4.8
1979-03-04 03:08:10.200 ,4,1,,0,2752.,4.8,896.,4.8,,0,0.,4.8,544.,4.8
1979-03-04 03:08:15.000 ,7,1,,0,3840.,4.8,1152.,4.8,,0,0.,4.8,752.,4.8
1979-03-04 03:08:19.800 ,7,1,,0,2944.,4.8,928.,4.8,,0,0.,4.8,624.,4.8
1979-03-04 03:08:24.600 ,7,1,,0,1184.,4.8,400.,4.8,,0,0.,4.8,296.,4.8
1979-03-04 03:08:29.400 ,7,1,,0,0.,4.8,0.,4.8,,0,0.,4.8,0.,4.8
1979-03-04 03:08:34.200 ,7,1,,0,1.,4.8,0.,4.8,,0,0.,4.8,44.,4.8
1979-03-04 03:08:39.000 ,3,1,,0,0.,4.8,0.,4.8,,0,0.,4.8,624.,4.8
1979-03-04 03:08:43.800 ,3,1,,0,0.,4.8,0.,4.8,,0,0.,4.8,784.,4.8
1979-03-04 03:08:48.600 ,3,1,,0,488.,4.8,160.,4.8,,0,0.,4.8,592.,4.8
1979-03-04 03:08:53.400 ,3,1,,0,2432.,4.8,784.,4.8,,0,0.,4.8,512.,4.8
1979-03-04 03:08:58.200 ,3,1,,0,1792.,4.8,512.,4.8,,0,0.,4.8,336.,4.8
1979-03-04 03:09:03.000 ,0,1,,0,1440.,4.8,376.,4.8,,0,0.,4.8,244.,4.8
1979-03-04 03:09:07.800 ,0,1,,0,1376.,4.8,384.,4.8,,0,0.,4.8,264.,4.8
1979-03-04 03:09:12.600 ,0,1,,0,1248.,4.8,352.,4.8,,0,0.,4.8,320.,4.8
1979-03-04 03:09:17.400 ,0,1,,0,1.,4.8,0.,4.8,,0,0.,4.8,368.,4.8
1979-03-04 03:09:22.200 ,0,1,,0,0.,4.8,0.,4.8,,0,0.,4.8,328.,4.8
1979-03-04 03:09:27.000 ,4,1,,0,1.,4.8,0.,4.8,,0,0.,4.8,296.,4.8
1979-03-04 03:09:31.800 ,4,1,,0,0.,4.8,0.,4.8,,0,0.,4.8,256.,4.8
1979-03-04 03:09:36.600 ,4,1,,0,328.,4.8,98.,4.8,,0,0.,4.8,328.,4.8
1979-03-04 03:09:41.400 ,4,1,,0,2112.,4.8,608.,4.8,,0,0.,4.8,432.,4.8
1979-03-04 03:09:46.200 ,4,1,,0,2944.,4.8,912.,4.8,,0,0.,4.8,560.,4.8
1979-03-04 03:09:51.000 ,7,1,,0,3712.,4.8,1120.,4.8,,0,0.,4.8,800.,4.8
1979-03-04 03:09:55.800 ,7,1,,0,3136.,4.8,1024.,4.8,,0,0.,4.8,704.,4.8
1979-03-04 03:10:00.600 ,7,1,,0,1248.,4.8,384.,4.8,,0,0.,4.8,280.,4.8
1979-03-04 03:10:05.400 ,7,1,,0,2.,4.8,0.,4.8,,0,0.,4.8,0.,4.8
1979-03-04 03:10:10.200 ,7,1,,0,1.,4.8,0.,4.8,,0,0.,4.8,40.,4.8
1979-03-04 03:10:15.000 ,3,1,,0,1.,4.8,0.,4.8,,0,0.,4.8,672.,4.8
1979-03-04 03:10:19.800 ,3,1,,0,0.,4.8,0.,4.8,,0,0.,4.8,800.,4.8
1979-03-04 03:10:24.600 ,3,1,,0,528.,4.8,168.,4.8,,0,0.,4.8,704.,4.8
1979-03-04 03:10:29.400 ,3,1,,0,2560.,4.8,768.,4.8,,0,0.,4.8,496.,4.8
1979-03-04 03:10:34.200 ,3,1,,0,1792.,4.8,528.,4.8,,0,0.,4.8,320.,4.8
1979-03-04 03:10:39.000 ,0,1,,0,1536.,4.8,392.,4.8,,0,0.,4.8,244.,4.8
1979-03-04 03:10:43.800 ,0,1,,0,1472.,4.8,408.,4.8,,0,0.,4.8,280.,4.8
1979-03-04 03:10:48.600 ,0,1,,0,1312.,4.8,360.,4.8,,0,0.,4.8,296.,4.8
1979-03-04 03:10:53.400 ,0,1,,0,1.,4.8,0.,4.8,,0,0.,4.8,336.,4.8
1979-03-04 03:10:58.200 ,0,1,,0,1.,4.8,0.,4.8,,0,0.,4.8,352.,4.8
1979-03-04 03:11:03.000 ,4,1,,0,2.,4.8,0.,4.8,,0,0.,4.8,272.,4.8
1979-03-04 03:11:07.800 ,4,1,,0,0.,4.8,0.,4.8,,0,0.,4.8,240.,4.8
1979-03-04 03:11:12.600 ,4,1,,0,288.,4.8,78.,4.8,,0,0.,4.8,320.,4.8
1979-03-04 03:11:17.400 ,4,1,,0,2176.,4.8,656.,4.8,,0,0.,4.8,400.,4.8
1979-03-04 03:11:22.200 ,4,1,,0,2944.,4.8,880.,4.8,,0,0.,4.8,608.,4.8
1979-03-04 03:11:27.000 ,0,0,,0,3904.,4.8,1184.,4.8,,0,0.,4.8,816.,4.8
1979-03-04 03:11:31.800 ,0,0,,0,3200.,4.8,1024.,4.8,,0,0.,4.8,720.,4.8
1979-03-04 03:11:36.600 ,0,0,,0,1280.,4.8,432.,4.8,,0,0.,4.8,256.,4.8
1979-03-04 03:11:41.400 ,0,0,,0,4.,4.8,0.,4.8,,0,0.,4.8,0.,4.8
1979-03-04 03:11:46.200 ,0,0,,0,,0,,0,,0,,0,,0
1979-03-04 03:11:51.000 ,0,0,,0,3.,4.8,0.,4.8,,0,0.,4.8,624.,4.8
1979-03-04 03:11:55.800 ,0,0,,0,1.,4.8,0.,4.8,,0,0.,4.8,800.,4.8
1979-03-04 03:12:00.600 ,0,0,,0,504.,4.8,152.,4.8,,0,0.,4.8,672.,4.8
1979-03-04 03:12:05.400 ,0,0,,0,2496.,4.8,752.,4.8,,0,0.,4.8,488.,4.8
1979-03-04 03:12:10.200 ,0,0,,0,1760.,4.8,496.,4.8,,0,0.,4.8,344.,4.8
1979-03-04 03:12:15.000 ,0,1,,0,1440.,4.8,368.,4.8,,0,0.,4.8,252.,4.8
1979-03-04 03:12:19.800 ,0,1,,0,1504.,4.8,408.,4.8,,0,0.,4.8,296.,4.8
1979-03-04 03:12:24.600 ,0,1,,0,1280.,4.8,368.,4.8,,0,0.,4.8,352.,4.8
1979-03-04 03:12:29.400 ,0,1,,0,0.,4.8,0.,4.8,,0,0.,4.8,368.,4.8
1979-03-04 03:12:34.200 ,0,1,,0,0.,4.8,0.,4.8,,0,0.,4.8,336.,4.8
1979-03-04 03:12:39.000 ,4,1,,0,0.,4.8,0.,4.8,,0,0.,4.8,280.,4.8
1979-03-04 03:12:43.800 ,4,1,,0,3.,4.8,0.,4.8,,0,0.,4.8,280.,4.8
1979-03-04 03:12:48.600 ,4,1,,0,280.,4.8,88.,4.8,,0,0.,4.8,320.,4.8
1979-03-04 03:12:53.400 ,4,1,,0,2112.,4.8,640.,4.8,,0,0.,4.8,400.,4.8
1979-03-04 03:12:58.200 ,4,1,,0,3072.,4.8,928.,4.8,,0,0.,4.8,560.,4.8
1979-03-04 03:13:03.000 ,7,1,,0,3968.,4.8,1216.,4.8,,0,0.,4.8,864.,4.8
1979-03-04 03:13:07.800 ,7,1,,0,3136.,4.8,1008.,4.8,,0,0.,4.8,704.,4.8
1979-03-04 03:13:12.600 ,7,1,,0,1280.,4.8,424.,4.8,,0,0.,4.8,280.,4.8
1979-03-04 03:13:17.400 ,7,1,,0,0.,4.8,0.,4.8,,0,0.,4.8,0.,4.8
1979-03-04 03:13:22.200 ,7,1,,0,1.,4.8,0.,4.8,,0,0.,4.8,39.,4.8
1979-03-04 03:13:27.000 ,3,1,,0,2.,4.8,0.,4.8,,0,0.,4.8,688.,4.8
1979-03-04 03:13:31.800 ,3,1,,0,1.,4.8,0.,4.8,,0,0.,4.8,800.,4.8
1979-03-04 03:13:36.600 ,3,1,,0,472.,4.8,136.,4.8,,0,0.,4.8,688.,4.8
1979-03-04 03:13:41.400 ,3,1,,0,2560.,4.8,768.,4.8,,0,0.,4.8,472.,4.8
1979-03-04 03:13:46.200 ,3,1,,0,1760.,4.8,528.,4.8,,0,0.,4.8,336.,4.8
1979-03-04 03:13:51.000 ,0,1,,0,1472.,4.8,440.,4.8,,0,0.,4.8,312.,4.8
1979-03-04 03:13:55.800 ,0,1,,0,1664.,4.8,496.,4.8,,0,0.,4.8,320.,4.8
1979-03-04 03:14:00.600 ,0,1,,0,1440.,4.8,408.,4.8,,0,0.,4.8,360.,4.8
1979-03-04 03:14:05.400 ,0,1,,0,1.,4.8,0.,4.8,,0,0.,4.8,360.,4.8
1979-03-04 03:14:10.200 ,0,1,,0,0.,4.8,0.,4.8,,0,0.,4.8,368.,4.8
1979-03-04 03:14:15.000 ,4,1,,0,0.,4.8,0.,4.8,,0,0.,4.8,328.,4.8
1979-03-04 03:14:19.800 ,4,1,,0,0.,4.8,0.,4.8,,0,0.,4.8,312.,4.8
1979-03-04 03:14:24.600 ,4,1,,0,304.,4.8,82.,4.8,,0,0.,4.8,312.,4.8
1979-03-04 03:14:29.400 ,4,1,,0,2240.,4.8,672.,4.8,,0,0.,4.8,408.,4.8
1979-03-04 03:14:34.200 ,4,1,,0,3072.,4.8,928.,4.8,,0,0.,4.8,576.,4.8
1979-03-04 03:14:39.000 ,7,1,,0,4224.,4.8,1280.,4.8,,0,0.,4.8,848.,4.8
1979-03-04 03:14:43.800 ,7,1,,0,3264.,4.8,1088.,4.8,,0,0.,4.8,704.,4.8
1979-03-04 03:14:48.600 ,7,1,,0,1280.,4.8,392.,4.8,,0,0.,4.8,296.,4.8
1979-03-04 03:14:53.400 ,7,1,,0,0.,4.8,0.,4.8,,0,0.,4.8,0.,4.8
1979-03-04 03:14:58.200 ,7,1,,0,0.,4.8,0.,4.8,,0,0.,4.8,56.,4.8
1979-03-04 03:15:03.000 ,0,0,,0,0.,4.8,0.,4.8,,0,0.,4.8,672.,4.8
1979-03-04 03:15:07.800 ,0,0,,0,0.,4.8,0.,4.8,,0,0.,4.8,800.,4.8
1979-03-04 03:15:12.600 ,0,0,,0,,0,,0,,0,,0,,0
1979-03-04 03:15:17.400 ,0,0,,0,2624.,4.8,800.,4.8,,0,0.,4.8,488.,4.8
1979-03-04 03:15:22.200 ,0,0,,0,1856.,4.8,544.,4.8,,0,0.,4.8,352.,4.8
1979-03-04 03:15:27.000 ,0,1,,0,1536.,4.8,480.,4.8,,0,0.,4.8,320.,4.8
1979-03-04 03:15:31.800 ,0,1,,0,1792.,4.8,512.,4.8,,0,0.,4.8,352.,4.8
1979-03-04 03:15:36.600 ,0,1,,0,1568.,4.8,464.,4.8,,0,0.,4.8,368.,4.8
1979-03-04 03:15:41.400 ,0,1,,0,1.,4.8,0.,4.8,,0,0.,4.8,368.,4.8
1979-03-04 03:15:46.200 ,0,1,,0,0.,4.8,0.,4.8,,0,0.,4.8,408.,4.8
1979-03-04 03:15:51.000 ,4,1,,0,1.,4.8,0.,4.8,,0,0.,4.8,368.,4.8
1979-03-04 03:15:55.800 ,4,1,,0,0.,4.8,0.,4.8,,0,0.,4.8,288.,4.8
1979-03-04 03:16:00.600 ,4,1,,0,296.,4.8,86.,4.8,,0,0.,4.8,384.,4.8
1979-03-04 03:16:05.400 ,4,1,,0,2240.,4.8,656.,4.8,,0,0.,4.8,432.,4.8
1979-03-04 03:16:10.200 ,4,1,,0,3200.,4.8,992.,4.8,,0,0.,4.8,592.,4.8
1979-03-04 03:16:15.000 ,7,1,,0,4224.,4.8,1312.,4.8,,0,0.,4.8,864.,4.8
1979-03-04 03:16:19.800 ,7,1,,0,3264.,4.8,1024.,4.8,,0,0.,4.8,752.,4.8
1979-03-04 03:16:24.600 ,7,1,,0,1280.,4.8,432.,4.8,,0,0.,4.8,296.,4.8
1979-03-04 03:16:29.400 ,7,1,,0,0.,4.8,0.,4.8,,0,0.,4.8,0.,4.8
1979-03-04 03:16:34.200 ,7,1,,0,1.,4.8,0.,4.8,,0,0.,4.8,43.,4.8
1979-03-04 03:16:39.000 ,3,1,,0,1.,4.8,0.,4.8,,0,0.,4.8,656.,4.8
1979-03-04 03:16:43.800 ,3,1,,0,1.,4.8,0.,4.8,,0,0.,4.8,896.,4.8
1979-03-04 03:16:48.600 ,3,1,,0,512.,4.8,160.,4.8,,0,0.,4.8,768.,4.8
1979-03-04 03:16:53.400 ,3,1,,0,2752.,4.8,848.,4.8,,0,0.,4.8,496.,4.8
1979-03-04 03:16:58.200 ,3,1,,0,1920.,4.8,576.,4.8,,0,0.,4.8,344.,4.8
1979-03-04 03:17:03.000 ,0,1,,0,1600.,4.8,464.,4.8,,0,0.,4.8,288.,4.8
1979-03-04 03:17:07.800 ,0,1,,0,1792.,4.8,512.,4.8,,0,0.,4.8,352.,4.8
1979-03-04 03:17:12.600 ,0,1,,0,1600.,4.8,488.,4.8,,0,0.,4.8,408.,4.8
1979-03-04 03:17:17.400 ,0,1,,0,0.,4.8,0.,4.8,,0,0.,4.8,432.,4.8
1979-03-04 03:17:22.200 ,0,1,,0,0.,4.8,0.,4.8,,0,0.,4.8,424.,4.8
1979-03-04 03:17:27.000 ,4,1,,0,,0,,0,,0,,0,,0
1979-03-04 03:17:31.800 ,4,1,,0,0.,4.8,0.,4.8,,0,0.,4.8,280.,4.8
1979-03-04 03:17:36.600 ,4,1,,0,312.,4.8,112.,4.8,,0,0.,4.8,312.,4.8
1979-03-04 03:17:41.400 ,4,1,,0,2304.,4.8,704.,4.8,,0,0.,4.8,472.,4.8
1979-03-04 03:17:46.200 ,4,1,,0,3328.,4.8,1024.,4.8,,0,0.,4.8,640.,4.8
1979-03-04 03:17:51.000 ,7,1,,0,4480.,4.8,1440.,4.8,,0,0.,4.8,928.,4.8
1979-03-04 03:17:55.800 ,7,1,,0,3392.,4.8,1152.,4.8,,0,0.,4.8,736.,4.8
1979-03-04 03:18:00.600 ,7,1,,0,1344.,4.8,448.,4.8,,0,0.,4.8,280.,4.8
1979-03-04 03:18:05.400 ,7,1,,0,0.,4.8,0.,4.8,,0,0.,4.8,0.,4.8
1979-03-04 03:18:10.200 ,7,1,,0,0.,4.8,0.,4.8,,0,0.,4.8,61.,4.8
1979-03-04 03:18:15.000 ,3,1,,0,0.,4.8,0.,4.8,,0,0.,4.8,704.,4.8
1979-03-04 03:18:19.800 ,3,1,,0,1.,4.8,0.,4.8,,0,0.,4.8,928.,4.8
1979-03-04 03:18:24.600 ,3,1,,0,544.,4.8,152.,4.8,,0,0.,4.8,752.,4.8
1979-03-04 03:18:29.400 ,3,1,,0,2944.,4.8,944.,4.8,,0,0.,4.8,544.,4.8
1979-03-04 03:18:34.200 ,3,1,,0,2112.,4.8,640.,4.8,,0,0.,4.8,360.,4.8
1979-03-04 03:18:39.000 ,0,1,,0,1664.,4.8,504.,4.8,,0,0.,4.8,272.,4.8
1979-03-04 03:18:43.800 ,0,1,,0,1952.,4.8,560.,4.8,,0,0.,4.8,344.,4.8
1979-03-04 03:18:48.600 ,0,1,,0,1664.,4.8,496.,4.8,,0,0.,4.8,376.,4.8
1979-03-04 03:18:53.400 ,0,1,,0,2.,4.8,0.,4.8,,0,0.,4.8,416.,4.8
1979-03-04 03:18:58.200 ,0,1,,0,0.,4.8,0.,4.8,,0,0.,4.8,416.,4.8
1979-03-04 03:19:03.000 ,4,1,,0,0.,4.8,0.,4.8,,0,0.,4.8,320.,4.8
1979-03-04 03:19:07.800 ,4,1,,0,0.,4.8,0.,4.8,,0,0.,4.8,304.,4.8
1979-03-04 03:19:12.600 ,4,1,,0,296.,4.8,96.,4.8,,0,0.,4.8,344.,4.8
1979-03-04 03:19:17.400 ,4,1,,0,2432.,4.8,768.,4.8,,0,0.,4.8,488.,4.8
1979-03-04 03:19:22.200 ,4,1,,0,3456.,4.8,1088.,4.8,,0,0.,4.8,688.,4.8
1979-03-04 03:19:27.000 ,7,1,,0,4480.,4.8,1472.,4.8,,0,0.,4.8,928.,4.8
1979-03-04 03:19:31.800 ,7,1,,0,3456.,4.8,1152.,4.8,,0,0.,4.8,800.,4.8
1979-03-04 03:19:36.600 ,7,1,,0,1408.,4.8,440.,4.8,,0,0.,4.8,288.,4.8
1979-03-04 03:19:41.400 ,7,1,,0,0.,4.8,0.,4.8,,0,0.,4.8,0.,4.8
1979-03-04 03:19:46.200 ,7,1,,0,0.,4.8,0.,4.8,,0,0.,4.8,58.,4.8
1979-03-04 03:19:51.000 ,3,1,,0,1.,4.8,0.,4.8,,0,0.,4.8,672.,4.8
1979-03-04 03:19:55.800 ,3,1,,0,1.,4.8,0.,4.8,,0,0.,4.8,912.,4.8
1979-03-04 03:20:00.600 ,3,1,,0,592.,4.8,184.,4.8,,0,0.,4.8,720.,4.8
1979-03-04 03:20:05.400 ,3,1,,0,2944.,4.8,944.,4.8,,0,0.,4.8,544.,4.8
1979-03-04 03:20:10.200 ,3,1,,0,2048.,4.8,592.,4.8,,0,0.,4.8,360.,4.8
1979-03-04 03:20:15.000 ,0,1,,0,1632.,4.8,456.,4.8,,0,0.,4.8,272.,4.8
1979-03-04 03:20:19.800 ,0,1,,0,1952.,4.8,528.,4.8,,0,0.,4.8,352.,4.8
1979-03-04 03:20:24.600 ,0,1,,0,1632.,4.8,480.,4.8,,0,0.,4.8,384.,4.8
1979-03-04 03:20:29.400 ,0,1,,0,2.,4.8,0.,4.8,,0,0.,4.8,392.,4.8
1979-03-04 03:20:34.200 ,0,1,,0,0.,4.8,0.,4.8,,0,0.,4.8,392.,4.8
1979-03-04 03:20:39.000 ,4,1,,0,2.,4.8,0.,4.8,,0,0.,4.8,336.,4.8
1979-03-04 03:20:43.800 ,4,1,,0,2.,4.8,0.,4.8,,0,0.,4.8,296.,4.8
1979-03-04 03:20:48.600 ,4,1,,0,336.,4.8,100.,4.8,,0,0.,4.8,320.,4.8
1979-03-04 03:20:53.400 ,4,1,,0,2432.,4.8,784.,4.8,,0,0.,4.8,440.,4.8
1979-03-04 03:20:58.200 ,4,1,,0,3776.,4.8,1120.,4.8,,0,0.,4.8,736.,4.8
1979-03-04 03:21:03.000 ,7,1,,0,4608.,4.8,1440.,4.8,,0,0.,4.8,976.,4.8
1979-03-04 03:21:07.800 ,7,1,,0,3264.,4.8,1024.,4.8,,0,0.,4.8,752.,4.8
1979-03-04 03:21:12.600 ,7,1,,0,1248.,4.8,400.,4.8,,0,0.,4.8,288.,4.8
1979-03-04 03:21:17.400 ,7,1,,0,1.,4.8,0.,4.8,,0,0.,4.8,0.,4.8
1979-03-04 03:21:22.200 ,7,1,,0,1.,4.8,0.,4.8,,0,0.,4.8,46.,4.8
1979-03-04 03:21:27.000 ,3,1,,0,2.,4.8,0.,4.8,,0,0.,4.8,656.,4.8
1979-03-04 03:21:31.800 ,3,1,,0,1.,4.8,0.,4.8,,0,0.,4.8,880.,4.8
1979-03-04 03:21:36.600 ,3,1,,0,640.,4.8,212.,4.8,,0,0.,4.8,800.,4.8
1979-03-04 03:21:41.400 ,3,1,,0,3136.,4.8,976.,4.8,,0,0.,4.8,576.,4.8
1979-03-04 03:21:46.200 ,3,1,,0,1952.,4.8,592.,4.8,,0,0.,4.8,360.,4.8
1979-03-04 03:21:51.000 ,0,1,,0,1632.,4.8,504.,4.8,,0,0.,4.8,304.,4.8
1979-03-04 03:21:55.800 ,0,1,,0,1984.,4.8,576.,4.8,,0,0.,4.8,368.,4.8
1979-03-04 03:22:00.600 ,0,1,,0,1632.,4.8,480.,4.8,,0,0.,4.8,376.,4.8
1979-03-04 03:22:05.400 ,0,1,,0,1.,4.8,0.,4.8,,0,0.,4.8,424.,4.8
1979-03-04 03:22:10.200 ,0,1,,0,3.,4.8,0.,4.8,,0,0.,4.8,432.,4.8
1979-03-04 03:22:15.000 ,4,1,,0,1.,4.8,0.,4.8,,0,0.,4.8,392.,4.8
1979-03-04 03:22:19.800 ,4,1,,0,0.,4.8,0.,4.8,,0,0.,4.8,312.,4.8
1979-03-04 03:22:24.600 ,4,1,,0,352.,4.8,100.,4.8,,0,0.,4.8,360.,4.8
1979-03-04 03:22:29.400 ,4,1,,0,2432.,4.8,752.,4.8,,0,0.,4.8,472.,4.8
1979-03-04 03:22:34.200 ,4,1,,0,3648.,4.8,1184.,4.8,,0,0.,4.8,688.,4.8
1979-03-04 03:22:39.000 ,7,1,,0,4352.,4.8,1408.,4.8,,0,0.,4.8,960.,4.8
1979-03-04 03:22:43.800 ,7,1,,0,3264.,4.8,1056.,4.8,,0,0.,4.8,704.,4.8
1979-03-04 03:22:48.600 ,7,1,,0,1216.,4.8,384.,4.8,,0,0.,4.8,256.,4.8
1979-03-04 03:22:53.400 ,7,1,,0,1.,4.8,0.,4.8,,0,0.,4.8,0.,4.8
1979-03-04 03:22:58.200 ,7,1,,0,0.,4.8,0.,4.8,,0,0.,4.8,38.,4.8
1979-03-04 03:33:27.000 ,0,0,,0,2.,4.8,0.,4.8,,0,0.,4.8,488.,4.8
1979-03-04 03:33:31.800 ,0,0,,0,0.,4.8,0.,4.8,,0,0.,4.8,328.,4.8
1979-03-04 03:33:36.600 ,0,0,,0,480.,4.8,152.,4.8,,0,0.,4.8,376.,4.8
1979-03-04 03:33:41.400 ,0,0,,0,3776.,4.8,1280.,4.8,,0,0.,4.8,608.,4.8
1979-03-04 03:33:46.200 ,0,0,,0,5760.,4.8,1984.,4.8,,0,0.,4.8,1024.,4.8
1979-03-04 03:33:51.000 ,7,1,,0,5248.,4.8,1760.,4.8,,0,0.,4.8,1376.,4.8
1979-03-04 03:33:55.800 ,7,1,,0,3520.,4.8,1120.,4.8,,0,0.,4.8,976.,4.8
1979-03-04 03:34:00.600 ,7,1,,0,1376.,4.8,464.,4.8,,0,0.,4.8,352.,4.8
1979-03-04 03:34:05.400 ,7,1,,0,1.,4.8,0.,4.8,,0,0.,4.8,0.,4.8
1979-03-04 03:34:10.200 ,7,1,,0,1.,4.8,0.,4.8,,0,0.,4.8,61.,4.8
1979-03-04 03:34:15.000 ,3,1,,0,2.,4.8,0.,4.8,,0,0.,4.8,816.,4.8
1979-03-04 03:34:19.800 ,3,1,,0,0.,4.8,0.,4.8,,0,0.,4.8,1184.,4.8
1979-03-04 03:34:24.600 ,3,1,,0,912.,4.8,296.,4.8,,0,0.,4.8,1088.,4.8
1979-03-04 03:34:29.400 ,3,1,,0,4736.,4.8,1632.,4.8,,0,0.,4.8,864.,4.8
1979-03-04 03:34:34.200 ,3,1,,0,2880.,4.8,928.,4.8,,0,0.,4.8,448.,4.8
1979-03-04 03:34:39.000 ,0,1,,0,2176.,4.8,752.,4.8,,0,0.,4.8,376.,4.8
1979-03-04 03:34:43.800 ,0,1,,0,3072.,4.8,912.,4.8,,0,0.,4.8,480.,4.8
1979-03-04 03:34:48.600 ,0,1,,0,3136.,4.8,976.,4.8,,0,0.,4.8,784.,4.8
1979-03-04 03:34:53.400 ,0,1,,0,0.,4.8,0.,4.8,,0,0.,4.8,960.,4.8
1979-03-04 03:34:58.200 ,0,1,,0,0.,4.8,0.,4.8,,0,0.,4.8,944.,4.8
1979-03-04 03:35:03.000 ,4,1,,0,0.,4.8,0.,4.8,,0,0.,4.8,560.,4.8
1979-03-04 03:35:07.800 ,4,1,,0,0.,4.8,0.,4.8,,0,0.,4.8,376.,4.8
1979-03-04 03:35:12.600 ,4,1,,0,512.,4.8,168.,4.8,,0,0.,4.8,416.,4.8
1979-03-04 03:35:17.400 ,4,1,,0,3840.,4.8,1312.,4.8,,0,0.,4.8,672.,4.8
1979-03-04 03:35:22.200 ,4,1,,0,5504.,4.8,1920.,4.8,,0,0.,4.8,1056.,4.8
1979-03-04 03:35:27.000 ,7,1,,0,5248.,4.8,1792.,4.8,,0,0.,4.8,1312.,4.8
1979-03-04 03:35:31.800 ,7,1,,0,3584.,4.8,1184.,4.8,,0,0.,4.8,864.,4.8
1979-03-04 03:35:36.600 ,7,1,,0,1312.,4.8,480.,4.8,,0,0.,4.8,384.,4.8
1979-03-04 03:35:41.400 ,7,1,,0,0.,4.8,0.,4.8,,0,0.,4.8,0.,4.8
1979-03-04 03:35:46.200 ,7,1,,0,2.,4.8,0.,4.8,,0,0.,4.8,63.,4.8
1979-03-04 03:35:51.000 ,3,1,,0,0.,4.8,0.,4.8,,0,0.,4.8,912.,4.8
1979-03-04 03:35:55.800 ,3,1,,0,1.,4.8,0.,4.8,,0,0.,4.8,1184.,4.8
1979-03-04 03:36:00.600 ,3,1,,0,960.,4.8,392.,4.8,,0,0.,4.8,1280.,4.8
1979-03-04 03:36:05.400 ,3,1,,0,5120.,4.8,1920.,4.8,,0,0.,4.8,896.,4.8
1979-03-04 03:36:10.200 ,3,1,,0,3072.,4.8,1056.,4.8,,0,0.,4.8,488.,4.8
1979-03-04 03:36:15.000 ,0,1,,0,2880.,4.8,848.,4.8,,0,0.,4.8,424.,4.8
1979-03-04 03:36:19.800 ,0,1,,0,3392.,4.8,832.,4.8,,0,0.,4.8,448.,4.8
1979-03-04 03:36:24.600 ,0,1,,0,3520.,4.8,896.,4.8,,0,0.,4.8,736.,4.8
1979-03-04 03:36:29.400 ,0,1,,0,1.,4.8,0.,4.8,,0,0.,4.8,976.,4.8
1979-03-04 03:36:34.200 ,0,1,,0,1.,4.8,0.,4.8,,0,0.,4.8,896.,4.8
1979-03-04 03:36:39.000 ,4,1,,0,0.,4.8,0.,4.8,,0,0.,4.8,432.,4.8
1979-03-04 03:36:43.800 ,4,1,,0,0.,4.8,0.,4.8,,0,0.,4.8,368.,4.8
1979-03-04 03:36:48.600 ,4,1,,0,560.,4.8,164.,4.8,,0,0.,4.8,488.,4.8
1979-03-04 03:36:53.400 ,4,1,,0,4480.,4.8,1472.,4.8,,0,0.,4.8,720.,4.8
1979-03-04 03:36:58.200 ,4,1,,0,6528.,4.8,2176.,4.8,,0,0.,4.8,1120.,4.8
1979-03-04 03:37:03.000 ,7,1,,0,5504.,4.8,1792.,4.8,,0,0.,4.8,1248.,4.8
1979-03-04 03:37:07.800 ,7,1,,0,4096.,4.8,1344.,4.8,,0,0.,4.8,1024.,4.8
1979-03-04 03:37:12.600 ,7,1,,0,1600.,4.8,512.,4.8,,0,0.,4.8,400.,4.8
1979-03-04 03:37:17.400 ,7,1,,0,1.,4.8,0.,4.8,,0,0.,4.8,0.,4.8
1979-03-04 03:37:22.200 ,7,1,,0,0.,4.8,0.,4.8,,0,0.,4.8,80.,4.8
1979-03-04 03:37:27.000 ,3,1,,0,1.,4.8,0.,4.8,,0,0.,4.8,1024.,4.8
1979-03-04 03:37:31.800 ,3,1,,0,1.,4.8,0.,4.8,,0,0.,4.8,1376.,4.8
1979-03-04 03:37:36.600 ,3,1,,0,1216.,4.8,400.,4.8,,0,0.,4.8,1344.,4.8
1979-03-04 03:37:41.400 ,3,1,,0,6400.,4.8,2016.,4.8,,0,0.,4.8,1024.,4.8
1979-03-04 03:37:46.200 ,3,1,,0,4032.,4.8,1248.,4.8,,0,0.,4.8,560.,4.8
1979-03-04 03:37:51.000 ,0,1,,0,2432.,4.8,640.,4.8,,0,0.,4.8,360.,4.8
1979-03-04 03:37:55.800 ,0,1,,0,2880.,4.8,672.,4.8,,0,0.,4.8,408.,4.8
1979-03-04 03:38:00.600 ,0,1,,0,3200.,4.8,704.,4.8,,0,0.,4.8,720.,4.8
1979-03-04 03:38:05.400 ,0,1,,0,1.,4.8,0.,4.8,,0,0.,4.8,832.,4.8
1979-03-04 03:38:10.200 ,0,1,,0,2.,4.8,0.,4.8,,0,0.,4.8,768.,4.8
1979-03-04 03:38:15.000 ,4,1,,0,0.,4.8,0.,4.8,,0,0.,4.8,400.,4.8
1979-03-04 03:38:19.800 ,4,1,,0,0.,4.8,0.,4.8,,0,0.,4.8,328.,4.8
1979-03-04 03:38:24.600 ,4,1,,0,752.,4.8,240.,4.8,,0,0.,4.8,448.,4.8